Location: Castrojimeno
(41.3966°N, 3.8473°W)
Time: 10:17:25
(UTC+00:00)

BREEZE-M DEB (TANK) - Pass Details

Date: 15 May 2026
Orbit: 262 x 12018 km, 49.5° (Epoch: 6 June)

Event Time Altitude Azimuth Distance (km) Brightness Sun altitude
Rises 21:11:50 0° 271° (W) 3,662 7.2 -16.6°
Reaches altitude 10° 21:15:49 10° 288° (WNW) 1,792 5.9 -17.1°
Maximum altitude 21:18:24 19° 338° (NNW) 922 4.4 -17.5°
Drops below altitude 10° 21:20:06 10° 31° (NNE) 1,135 4.1 -17.7°
Enters shadow 21:20:43 - 41° (NE) 1,355 4.4 -17.8°
